Home > Weather > Kaiserslautern > Past weeks

Flag for Germany Weather for the Past 2 Weeks in Kaiserslautern, Rhineland-Palatinate, Germany

Now
46 °F

Partly sunny.


Feels Like: 41 °F
Forecast: 38 / 48 °F
Wind: 12 mph from Southwest

Location: Ramstein

Current Time: Feb 8, 2016 at 3:48:22 PM

Latest Report: Feb 8, 2016 at 2:58 PM


Visibility: N/A

Pressure: 29.49 "Hg

Humidity: 82%

Dew point: 41 °F

Location of KaiserslauternLocation

Historic Weather in Kaiserslautern — Graph

°F

Kaiserslautern Temperature Yesterday

Maximum temperature yesterday: 52 °F (at 1:58 AM)
Minimum temperature yesterday: 43 °F (at 9:58 PM)
Average temperature yesterday: 47 °F

High & Low Weather Summary for the Past Weeks

 TemperatureHumidityPressure
High59 °F (Jan 25, 3:58 PM)100% (Jan 24, 9:01 PM)30.52 "Hg (Jan 24, 9:01 PM)
Low32 °F (Feb 5, 3:58 AM)55% (Feb 6, 3:58 PM)29.47 "Hg (Feb 8, 12:59 PM)
Average45 °F88%30.13 "Hg
* Reported Jan 24 2:58 PM — Feb 8 2:58 PM, Kaiserslautern, Weather by CustomWeather, © 2016

Note: Actual official high and low records may vary slightly from our data, if they occured in-between our weather recording intervals... More about our weather records

Advertising

Kaiserslautern Weather History for the Previous 24 Hours

 ConditionsComfort  
Time TempWeatherWind HumidityBarometerVisibility
2:58 PM
Mon, Feb 8
46 °FPartly sunny.12 mph82%29.49 "HgN/A
2:04 PM46 °FBroken clouds.13 mph87%29.48 "HgN/A
1:58 PM46 °FLight rain. More clouds than sun.16 mph93%29.50 "HgN/A
12:59 PM46 °FLight rain. Broken clouds.16 mph87%29.47 "HgN/A
12:01 PM46 °FRain. Fog.15 mph93%29.48 "Hg3 mi
11:58 AM47 °FRain. Fog.16 mph92%29.50 "Hg4 mi
11:00 AM46 °FRain. Fog.13 mph93%29.49 "Hg5 mi
9:58 AM46 °FFog.17 mph90%29.52 "Hg6 mi
9:03 AM46 °FPartly sunny.16 mph82%29.51 "HgN/A
8:58 AM46 °FLight rain. Partly sunny.18 mph82%29.54 "HgN/A
7:58 AM45 °FLight rain. Mostly cloudy.20 mph81%29.55 "HgN/A
6:58 AM46 °FPassing clouds.15 mph72%29.56 "HgN/A
5:58 AM46 °FOvercast.15 mph72%29.60 "HgN/A
4:58 AM44 °FPartly cloudy.16 mph77%29.63 "HgN/A
3:58 AM44 °FLight rain. Passing clouds.14 mph76%29.66 "HgN/A
2:58 AM43 °FOvercast.15 mph76%29.70 "HgN/A
1:58 AM43 °FPassing clouds.15 mph77%29.73 "HgN/A
12:58 AM43 °FPassing clouds.15 mph80%29.76 "HgN/A
11:58 PM
Sun, Feb 7
44 °FPassing clouds.12 mph80%29.78 "HgN/A
10:58 PM44 °FPassing clouds.10 mph83%29.80 "HgN/A
9:58 PM43 °FPartly cloudy.13 mph85%29.80 "HgN/A
8:58 PM44 °FPassing clouds.10 mph79%29.80 "HgN/A
7:59 PM45 °FPassing clouds.10 mph87%29.77 "HgN/A
6:58 PM45 °FPassing clouds.10 mph84%29.78 "HgN/A
5:58 PM45 °FPassing clouds.10 mph84%29.76 "HgN/A
4:58 PM46 °FSunny.10 mph77%29.72 "HgN/A
3:58 PM46 °FPassing clouds.13 mph77%29.72 "HgN/A
Weather by CustomWeather, © 2016

See weather overviewHow to use our weather pages